Voltar ao catálogo

THOR AGENA D R/B

AtivoPO
NORAD 733·ROCKET BODY·🇺🇸 United States

Lançado Jan 19, 1964 de Vandenberg Space Force Base

Loading…

Próximas Passagens (próximas 24 horas)

TLE

AtualizadoSource: Space-Track

Época: Sep 14, 2026, 21:09 UTC

1 00733U 64002A   26257.88178137  .00000111  00000-0  56797-4 0  9991
2 00733  99.1137 281.4463 0033751  68.4243 292.0531 14.34094538265410

Acompanhe THOR AGENA D R/B em tempo real com AllMySat

Download on the App Store